| time (UTC) | temp F | wind direction | speed MPH | gust MPH | rain 1hr in | rain 24hr in | rain mn in | humidity % | barometer mb |
| 20260903234600 | 60 | 0.0 | 0.0 | 0.00 | 0.13 | 0.00 | 93 | 1007.3 | |
| 20260903233058 | 60 | 0.0 | 0.0 | 0.00 | 0.13 | 0.00 | 93 | 1007.1 | |
| 20260903230103 | 61 | 0.0 | 0.0 | 0.00 | 0.13 | 0.00 | 92 | 1007.3 | |
| 20260903224555 | 61 | 0.0 | 0.0 | 0.00 | 0.13 | 0.00 | 91 | 1007.5 | |
| 20260903223107 | 61 | 0.0 | 0.0 | 0.00 | 0.13 | 0.00 | 91 | 1007.6 | |
| 20260903221602 | 61 | 0.0 | 0.0 | 0.00 | 0.13 | 0.00 | 91 | 1007.6 | |
| 20260903220058 | 61 | 0.0 | 0.0 | 0.00 | 0.13 | 0.00 | 91 | 1007.5 | |
| 20260903214603 | 61 | 0.0 | 0.0 | 0.00 | 0.13 | 0.13 | 90 | 1007.4 | |
| 20260903213059 | 61 | 0.0 | 0.0 | 0.00 | 0.13 | 0.13 | 90 | 1007.5 | |
| 20260903211602 | 61 | 0.0 | 0.0 | 0.00 | 0.13 | 0.13 | 89 | 1007.4 | |
| 20260903210112 | 62 | 0.0 | 0.0 | 0.00 | 0.13 | 0.13 | 89 | 1007.5 | |
| 20260903204603 | 62 | 0.0 | 0.0 | 0.00 | 0.13 | 0.13 | 89 | 1007.4 | |
| 20260903203100 | 62 | 0.0 | 0.0 | 0.00 | 0.13 | 0.13 | 89 | 1007.4 | |
| 20260903201559 | 63 | 0.0 | 0.0 | 0.00 | 0.13 | 0.13 | 89 | 1007.3 | |
| 20260903200057 | 63 | 0.0 | 0.0 | 0.00 | 0.13 | 0.13 | 88 | 1007.4 | |
| 20260903194602 | 63 | 0.0 | 0.0 | 0.00 | 0.13 | 0.13 | 88 | 1007.4 | |
| 20260903193102 | 64 | 0.0 | 0.0 | 0.00 | 0.13 | 0.13 | 87 | 1007.3 | |
| 20260903191556 | 64 | 0.0 | 0.0 | 0.00 | 0.13 | 0.13 | 88 | 1007.2 | |
| 20260903190059 | 64 | 0.0 | 0.0 | 0.00 | 0.13 | 0.13 | 89 | 1007.1 | |
| 20260903184555 | 64 | 0.0 | 0.0 | 0.00 | 0.13 | 0.13 | 90 | 1007.2 | |
| 20260903183058 | 64 | 0.0 | 0.0 | 0.00 | 0.13 | 0.13 | 90 | 1007.2 | |
| 20260903181556 | 65 | 0.0 | 0.0 | 0.00 | 0.13 | 0.13 | 91 | 1006.9 | |
| 20260903180114 | 65 | 0.0 | 0.0 | 0.00 | 0.13 | 0.13 | 91 | 1006.6 | |
| 20260903174600 | 65 | 0.0 | 0.0 | 0.00 | 0.13 | 0.13 | 92 | 1006.6 | |
| 20260903173059 | 65 | 0.0 | 0.0 | 0.00 | 0.13 | 0.13 | 91 | 1006.7 | |
| 20260903171600 | 66 | 0.0 | 0.0 | 0.00 | 0.13 | 0.13 | 91 | 1006.6 | |
| 20260903170058 | 66 | 0.0 | 0.0 | 0.00 | 0.13 | 0.13 | 91 | 1006.5 | |
| 20260903164611 | 66 | 0.0 | 0.0 | 0.00 | 0.13 | 0.13 | 91 | 1006.5 | |
| 20260903163100 | 67 | 0.0 | 0.0 | 0.00 | 0.13 | 0.13 | 91 | 1006.5 | |
| 20260903161556 | 67 | 0.0 | 0.0 | 0.00 | 0.13 | 0.13 | 92 | 1006.4 | |
| 20260903160111 | 67 | 0.0 | 0.0 | 0.00 | 0.13 | 0.13 | 94 | 1006.5 | |
| 20260903154605 | 66 | 0.0 | 0.0 | 0.00 | 0.14 | 0.13 | 95 | 1006.5 | |
| 20260903153103 | 65 | 0.0 | 0.0 | 0.01 | 0.14 | 0.13 | 96 | 1006.5 | |
| 20260903151605 | 65 | 0.0 | 0.0 | 0.01 | 0.14 | 0.13 | 96 | 1006.5 | |
| 20260903150103 | 64 | 0.0 | 0.0 | 0.01 | 0.14 | 0.13 | 96 | 1006.6 | |
| 20260903144605 | 64 | 0.0 | 0.0 | 0.00 | 0.15 | 0.12 | 96 | 1006.7 | |
| 20260903143056 | 64 | 0.0 | 0.0 | 0.00 | 0.14 | 0.11 | 96 | 1007.2 | |
| 20260903141557 | 63 | 0.0 | 0.0 | 0.00 | 0.14 | 0.11 | 96 | 1007.3 | |
| 20260903140100 | 63 | 0.0 | 0.0 | 0.00 | 0.14 | 0.11 | 96 | 1007.4 | |
| 20260903134559 | 63 | 0.0 | 0.0 | 0.00 | 0.14 | 0.11 | 96 | 1007.4 | |
| 20260903133106 | 62 | 0.0 | 0.0 | 0.00 | 0.14 | 0.11 | 96 | 1007.7 | |
| 20260903131605 | 62 | 0.0 | 0.0 | 0.00 | 0.14 | 0.11 | 96 | 1007.9 | |
| 20260903130125 | 62 | 0.0 | 0.0 | 0.00 | 0.14 | 0.11 | 96 | 1007.9 | |
| 20260903124601 | 62 | 0.0 | 0.0 | 0.00 | 0.14 | 0.11 | 96 | 1007.9 | |
| 20260903123109 | 62 | 0.0 | 0.0 | 0.00 | 0.14 | 0.11 | 96 | 1008.0 | |
| 20260903121601 | 62 | 0.0 | 0.0 | 0.00 | 0.14 | 0.11 | 96 | 1008.2 | |
| 20260903120105 | 62 | 0.0 | 0.0 | 0.00 | 0.14 | 0.11 | 96 | 1008.5 | |
| 20260903114602 | 61 | 0.0 | 0.0 | 0.00 | 0.14 | 0.11 | 96 | 1008.7 | |
| 20260903113106 | 61 | 0.0 | 0.0 | 0.00 | 0.14 | 0.11 | 96 | 1008.8 | |
| 20260903111622 | 61 | 0.0 | 0.0 | 0.00 | 0.14 | 0.11 | 96 | 1009.0 | |
| 20260903110123 | 61 | 0.0 | 0.0 | 0.00 | 0.14 | 0.11 | 96 | 1009.2 | |
| 20260903104600 | 61 | 0.0 | 0.0 | 0.00 | 0.14 | 0.11 | 96 | 1009.2 | |
| 20260903103102 | 61 | 0.0 | 0.0 | 0.00 | 0.14 | 0.11 | 95 | 1009.5 | |
| 20260903101609 | 61 | 0.0 | 0.0 | 0.00 | 0.13 | 0.10 | 95 | 1009.8 | |
| 20260903094604 | 61 | 0.0 | 0.0 | 0.00 | 0.13 | 0.10 | 94 | 1010.3 | |
| 20260903093105 | 61 | 0.0 | 0.0 | 0.00 | 0.13 | 0.10 | 95 | 1010.7 | |
| 20260903091557 | 61 | 0.0 | 0.0 | 0.01 | 0.12 | 0.09 | 95 | 1010.7 | |
| 20260903090059 | 61 | 0.0 | 0.0 | 0.03 | 0.12 | 0.09 | 96 | 1010.9 | |
| 20260903084607 | 61 | 0.0 | 0.0 | 0.04 | 0.12 | 0.09 | 96 | 1011.1 | |
| 20260903083105 | 61 | 0.0 | 0.0 | 0.07 | 0.12 | 0.09 | 96 | 1011.2 | |
| 20260903081616 | 61 | 0.0 | 0.0 | 0.07 | 0.11 | 0.07 | 96 | 1011.4 | |
| 20260903080106 | 61 | 0.0 | 0.0 | 0.04 | 0.08 | 0.05 | 95 | 1011.5 | |
| 20260903074608 | 61 | 0.0 | 0.0 | 0.03 | 0.07 | 0.04 | 95 | 1011.6 | |
| 20260903073117 | 61 | 0.0 | 0.0 | 0.00 | 0.04 | 0.01 | 95 | 1011.7 | |
| 20260903071600 | 61 | 0.0 | 0.0 | 0.00 | 0.03 | 0.00 | 96 | 1011.8 | |
| 20260903070104 | 61 | 0.0 | 0.0 | 0.00 | 0.03 | 0.00 | 96 | 1011.9 | |
| 20260903064603 | 61 | 0.0 | 0.0 | 0.00 | 0.03 | 0.00 | 96 | 1012.0 | |
| 20260903063103 | 61 | 0.0 | 0.0 | 0.00 | 0.03 | 0.00 | 96 | 1012.1 | |
| 20260903061604 | 61 | 0.0 | 0.0 | 0.00 | 0.03 | 0.00 | 97 | 1012.3 | |
| 20260903060100 | 60 | 0.0 | 0.0 | 0.00 | 0.03 | 0.00 | 97 | 1012.4 | |
| 20260903054603 | 60 | 0.0 | 0.0 | 0.00 | 0.03 | 0.00 | 97 | 1012.7 | |
| 20260903053109 | 59 | 0.0 | 0.0 | 0.00 | 0.03 | 0.00 | 96 | 1012.8 | |
| 20260903051605 | 59 | 0.0 | 0.0 | 0.00 | 0.03 | 0.00 | 96 | 1012.8 | |
| 20260903050109 | 59 | 0.0 | 0.0 | 0.00 | 0.03 | 0.00 | 96 | 1013.0 | |
| 20260903044607 | 59 | 0.0 | 0.0 | 0.00 | 0.03 | 0.00 | 96 | 1013.0 | |
| 20260903043103 | 59 | 0.0 | 0.0 | 0.00 | 0.03 | 0.00 | 96 | 1013.0 | |
| 20260903041606 | 59 | 0.0 | 0.0 | 0.00 | 0.03 | 0.00 | 96 | 1013.1 | |
| 20260903040104 | 59 | 0.0 | 0.0 | 0.00 | 0.03 | 0.00 | 96 | 1013.3 | |
| 20260903034559 | 59 | 0.0 | 0.0 | 0.00 | 0.03 | 0.00 | 96 | 1013.4 | |
| 20260903033113 | 59 | 0.0 | 0.0 | 0.00 | 0.03 | 0.00 | 96 | 1013.5 | |
| 20260903031601 | 58 | 0.0 | 0.0 | 0.00 | 0.03 | 0.00 | 96 | 1013.5 | |
| 20260903030104 | 58 | 0.0 | 0.0 | 0.00 | 0.03 | 0.00 | 96 | 1013.6 | |
| 20260903024607 | 58 | 0.0 | 0.0 | 0.00 | 0.03 | 0.00 | 96 | 1013.7 | |
| 20260903023102 | 58 | 0.0 | 0.0 | 0.00 | 0.03 | 0.00 | 96 | 1013.8 | |
| 20260903021609 | 58 | 0.0 | 0.0 | 0.00 | 0.03 | 0.00 | 96 | 1013.8 | |
| 20260903020058 | 58 | 0.0 | 0.0 | 0.00 | 0.03 | 0.00 | 95 | 1014.3 | |
| 20260903014600 | 58 | 0.0 | 0.0 | 0.00 | 0.03 | 0.00 | 95 | 1014.4 | |
| 20260903013106 | 58 | 0.0 | 0.0 | 0.00 | 0.03 | 0.00 | 95 | 1014.4 | |
| 20260903011626 | 58 | 0.0 | 0.0 | 0.00 | 0.03 | 0.00 | 95 | 1014.6 | |
| 20260903010113 | 58 | 0.0 | 0.0 | 0.00 | 0.03 | 0.00 | 95 | 1014.6 | |
| 20260903004605 | 58 | 0.0 | 0.0 | 0.00 | 0.03 | 0.00 | 95 | 1014.5 | |
| 20260903003108 | 58 | 0.0 | 0.0 | 0.00 | 0.03 | 0.00 | 95 | 1014.6 | |
| 20260903001605 | 58 | 0.0 | 0.0 | 0.00 | 0.03 | 0.00 | 95 | 1014.7 | |
| 20260903000108 | 58 | 0.0 | 0.0 | 0.00 | 0.03 | 0.00 | 95 | 1014.7 |